Wind_Speed
16 16 16 16 17 17 17 18 17 17 17 17 17 16 15 14 14 14 13 12 12 11 11 10 10 9 9 8 8 8 7 7 6 6 6 6 5 5 5 5 5 6 6
17 17 18 18 18 18 18 19 19 19 19 18 18 18 17 16 16 15 15 14 14 13 12 11 11 10 10 9 9 9 8 8 7 7 7 7 7 7 7 7 8 8 8
20 20 20 20 20 20 20 20 20 20 21 20 19 19 19 18 17 17 16 16 15 14 14 13 12 11 11 10 10 10 9 9 9 9 8 8 8 8 9 9 9 10 10
22 22 22 22 22 22 22 22 22 22 22 22 22 21 20 19 19 18 18 17 16 16 15 15 14 13 13 12 11 11 11 10 10 10 10 10 10 10 10 11 11 11 12
24 24 24 24 24 24 24 24 24 24 23 23 23 23 22 21 20 20 19 19 18 18 17 16 16 15 15 14 13 13 13 12 12 12 12 12 12 12 12 12 13 13 14
26 26 26 26 26 26 26 26 26 26 25 25 25 24 24 23 22 22 21 21 20 20 19 18 18 18 17 16 15 15 15 14 14 14 14 14 14 14 14 14 14 15 15
28 27 27 27 28 28 29 29 29 29 28 27 26 26 25 25 25 24 24 23 22 22 22 21 20 20 20 19 18 17 16 16 16 16 16 16 16 16 16 16 16 16 16
31 30 29 29 30 30 31 31 31 31 30 29 29 28 27 27 27 26 26 25 25 24 24 23 23 22 21 21 20 19 18 18 18 18 18 18 18 18 18 18 18 18 18
33 32 32 32 32 32 33 33 32 32 32 32 31 31 30 30 29 29 28 28 27 27 27 26 25 24 23 23 22 22 21 21 21 21 20 20 20 20 20 20 20 20 20
36 36 35 35 35 34 34 34 33 34 34 34 34 33 33 32 32 31 30 30 29 29 29 29 28 27 26 25 25 24 23 23 23 23 22 22 22 22 21 21 21 21 21
39 39 38 38 37 37 36 35 35 35 36 36 36 35 35 35 34 33 32 32 31 31 31 30 30 29 28 27 27 27 26 26 25 25 24 24 24 23 23 23 23 23 23
41 41 41 40 39 38 38 37 37 37 37 37 37 37 36 36 36 36 35 34 34 34 33 33 33 32 31 30 29 29 28 28 27 27 26 26 26 26 26 26 25 25 25
41 41 41 40 40 39 39 38 38 38 38 38 38 38 38 38 37 37 37 36 36 36 36 35 35 35 34 33 32 31 31 30 29 29 29 29 28 28 28 28 28 27 27
40 40 41 40 40 40 39 39 39 40 39 40 40 40 40 40 39 39 39 38 37 37 37 37 38 37 37 36 35 34 34 33 33 32 32 31 31 31 30 30 30 29 29
40 39 39 40 40 40 39 39 41 41 41 41 41 41 41 41 41 41 41 41 40 39 39 39 38 39 39 39 38 38 37 36 35 35 34 34 33 33 32 32 31 30 30
41 40 40 40 40 39 39 40 41 42 42 42 42 42 42 43 43 43 43 43 42 42 41 40 39 40 40 40 40 40 39 39 38 37 36 36 35 34 34 33 32 32 32
42 42 41 41 41 40 40 41 42 42 43 43 43 43 43 44 44 44 44 44 44 44 43 43 42 41 42 42 42 42 42 41 40 39 37 37 37 37 36 35 35 34 33
41 42 42 42 42 42 42 42 42 42 43 44 44 44 44 45 45 44 45 45 45 45 45 44 44 43 43 43 43 43 43 42 41 41 39 38 38 38 37 37 36 35 35
40 41 42 43 43 43 43 44 44 44 43 45 45 45 45 46 46 46 45 46 46 46 46 46 45 44 44 44 44 44 44 43 43 42 41 40 39 38 37 38 37 36 36
41 41 42 42 42 44 45 45 46 45 45 45 46 46 46 47 48 48 48 48 48 48 48 47 46 44 44 44 44 45 44 44 43 43 42 40 39 39 39 39 38 37 37
42 42 43 42 43 44 45 45 46 46 46 46 47 48 48 48 48 47 48 48 49 49 48 48 47 45 44 44 44 44 44 45 44 44 42 41 40 40 39 40 40 40 39
42 42 43 43 43 44 45 45 45 45 44 46 48 48 49 49 48 48 48 48 49 49 48 48 47 46 46 46 46 46 45 44 43 44 44 42 41 41 41 41 41 41 40
40 41 42 43 44 44 45 45 45 45 45 45 46 47 48 48 49 50 49 49 49 49 48 48 48 48 46 46 47 46 45 44 44 44 44 43 42 41 40 40 40 40 41
38 39 41 42 43 44 44 45 45 45 45 46 45 45 46 47 48 48 48 49 49 49 49 49 49 48 47 47 48 46 45 45 44 44 44 43 43 43 42 40 40 41 41
37 39 40 42 42 43 44 44 43 44 45 46 46 46 46 47 46 46 46 47 48 49 49 49 49 48 48 48 48 47 45 43 43 44 44 43 42 42 42 42 41 41 41
35 37 38 40 41 43 44 45 45 44 45 45 44 44 45 45 45 46 46 46 48 48 48 48 49 48 49 48 48 47 47 46 44 43 43 42 42 42 42 42 42 41 41
Wind_Direction
262 261 259 259 258 256 255 254 253 252 249 247 246 246 248 247 247 247 248 249 249 249 252 254 252 253 255 257 259 260 263 269 273 275 275 277 279 278 281 285 290 295 300
263 262 260 260 259 258 256 256 255 253 252 250 249 248 249 249 249 248 248 249 250 250 251 254 252 252 254 254 256 260 263 268 272 271 272 273 275 277 278 281 283 287 290
264 263 261 261 261 260 259 257 257 255 253 251 249 249 249 249 250 249 249 249 249 250 251 253 253 251 252 253 255 259 261 265 269 271 272 274 276 275 276 279 282 284 286
263 262 261 260 261 261 260 258 256 255 254 252 250 249 248 248 249 250 248 248 249 250 251 253 255 255 253 254 257 259 262 264 267 269 271 275 277 276 276 279 283 285 286
262 263 261 260 260 260 260 258 256 254 253 252 251 249 247 247 248 248 248 248 248 250 252 253 256 257 255 256 259 261 263 264 266 268 271 274 276 278 279 281 283 284 285
262 262 262 261 260 261 261 258 254 254 253 252 251 250 248 247 248 249 249 250 250 251 252 254 255 257 257 257 259 261 263 265 266 268 271 273 276 277 278 281 283 284 285
261 261 262 261 262 261 261 259 255 253 253 252 250 250 249 247 247 249 250 250 252 253 252 254 255 257 257 258 258 260 263 265 267 268 271 273 275 276 278 280 281 283 283
260 261 261 261 262 262 261 258 255 253 252 252 250 250 249 248 248 249 250 251 252 254 254 254 256 257 258 258 258 260 262 265 267 268 270 273 274 276 278 278 279 281 283
260 261 262 263 263 263 263 258 253 252 251 251 251 250 249 249 249 249 250 252 252 253 255 254 255 257 259 259 259 261 262 265 267 268 269 271 274 276 277 277 278 280 281
260 262 263 263 263 263 261 257 253 251 250 251 251 250 250 250 250 250 250 252 253 254 254 255 255 256 258 260 261 261 263 265 267 268 268 270 272 274 275 276 277 278 280
261 262 263 263 263 262 259 256 253 251 250 250 250 250 250 250 251 251 251 252 253 254 255 256 256 256 257 260 262 262 263 264 266 267 268 270 272 274 275 275 276 277 278
261 262 264 263 263 261 258 253 252 251 250 250 250 250 250 249 250 251 252 252 253 254 255 257 257 257 258 260 261 262 263 264 265 266 267 269 270 272 274 275 275 276 277
263 264 263 262 261 259 256 252 251 251 250 250 250 250 250 249 250 251 251 253 253 254 254 256 258 259 259 259 261 262 263 264 265 266 268 268 269 271 273 274 275 275 277
263 264 263 261 259 257 254 251 251 250 250 251 251 251 250 250 250 251 252 253 254 254 255 256 257 259 260 260 261 263 263 263 264 265 267 268 269 269 270 272 273 274 275
263 263 261 260 259 255 252 251 250 250 251 253 253 253 252 251 252 252 252 253 253 254 255 256 258 260 261 261 261 263 264 264 264 264 266 267 268 269 269 271 272 273 275
262 261 259 258 257 254 252 251 251 250 251 252 252 252 253 252 252 253 253 254 254 254 255 256 258 260 261 261 261 262 263 264 264 264 265 267 268 269 270 270 272 273 274
263 260 258 256 254 253 252 253 252 252 251 250 251 253 253 253 253 253 253 254 255 256 256 256 257 259 261 262 262 262 263 263 264 263 264 266 268 268 269 270 271 272 273
264 260 256 253 252 252 251 252 253 255 253 251 251 253 253 253 253 253 253 255 256 257 257 257 257 258 262 262 262 263 264 263 264 264 263 264 266 268 268 269 270 271 271
263 259 255 253 252 252 252 253 253 254 255 253 252 253 253 253 253 253 254 255 256 257 258 258 257 259 262 262 261 262 263 263 263 263 263 264 266 268 268 267 268 269 270
264 260 255 253 253 253 253 253 254 255 255 254 253 254 254 255 255 255 255 255 255 257 258 258 258 260 261 262 262 263 263 262 262 262 264 265 266 266 267 267 267 268 271
265 262 257 254 254 254 253 255 256 256 256 254 254 254 254 255 255 255 256 256 256 257 258 258 258 259 260 261 262 262 261 262 261 261 262 263 264 266 267 267 266 268 270
265 262 257 255 255 254 255 256 257 257 258 255 255 255 255 255 255 256 258 257 257 257 258 258 258 258 259 260 262 261 262 261 261 261 261 261 263 266 267 268 267 268 268
266 262 258 256 256 257 256 256 257 257 258 257 256 255 256 256 258 257 257 257 257 257 258 258 258 257 260 261 261 262 261 261 261 260 260 260 263 265 265 267 267 267 268
267 263 259 258 257 256 256 257 257 258 257 257 257 258 257 256 257 257 258 257 257 257 258 258 257 257 260 260 260 261 262 263 261 260 260 261 264 264 265 266 266 267 268
270 266 263 260 258 257 257 258 258 257 257 258 258 258 257 255 256 258 258 256 256 257 258 258 258 257 259 260 261 260 260 261 262 262 261 260 263 264 264 265 266 267 268
271 268 265 260 259 258 258 257 258 257 257 258 259 258 256 255 255 255 258 257 257 257 258 258 258 257 258 260 260 260 259 260 260 261 262 260 262 263 263 263 264 266 267
Height
5843 5843 5844 5845 5845 5846 5847 5848 5848 5849 5850 5851 5851 5852 5853 5853 5854 5855 5855 5856 5856 5856 5857 5857 5858 5858 5858 5858 5859 5859 5859 5859 5859 5859 5859 5860 5859 5859 5859 5859 5859 5859 5859
5839 5840 5841 5842 5842 5843 5844 5845 5845 5846 5847 5848 5849 5849 5850 5851 5852 5852 5853 5853 5854 5855 5855 5855 5856 5856 5856 5856 5857 5857 5857 5858 5858 5858 5858 5858 5858 5858 5858 5858 5858 5857 5857
5835 5836 5837 5838 5839 5839 5840 5841 5842 5843 5844 5844 5845 5846 5847 5848 5849 5850 5850 5851 5852 5852 5853 5853 5853 5854 5854 5855 5855 5855 5855 5856 5856 5856 5856 5856 5856 5856 5856 5856 5855 5855 5855
5831 5832 5832 5833 5834 5835 5836 5837 5838 5839 5840 5841 5842 5843 5844 5845 5846 5846 5847 5848 5849 5849 5850 5851 5851 5851 5852 5852 5853 5853 5853 5854 5854 5854 5854 5854 5854 5854 5853 5853 5853 5853 5853
5826 5827 5827 5828 5829 5830 5831 5832 5833 5834 5836 5837 5838 5839 5840 5841 5842 5843 5844 5845 5846 5846 5847 5848 5848 5849 5849 5849 5850 5850 5851 5851 5851 5852 5852 5852 5852 5851 5851 5851 5850 5850 5850
5820 5821 5822 5823 5824 5824 5825 5827 5828 5829 5831 5832 5833 5834 5835 5836 5838 5839 5840 5841 5842 5843 5844 5844 5845 5845 5846 5846 5847 5847 5848 5848 5848 5849 5849 5849 5849 5849 5848 5848 5848 5847 5847
5814 5815 5816 5817 5817 5818 5819 5820 5822 5823 5825 5826 5828 5829 5830 5832 5833 5834 5836 5837 5838 5838 5839 5840 5841 5841 5842 5843 5843 5844 5844 5844 5845 5845 5846 5846 5845 5845 5845 5845 5844 5844 5843
5807 5808 5809 5810 5810 5811 5812 5813 5815 5817 5819 5820 5822 5823 5825 5826 5827 5829 5830 5832 5833 5834 5835 5836 5837 5837 5838 5839 5839 5840 5840 5841 5841 5841 5842 5842 5842 5841 5841 5841 5840 5840 5840
5799 5801 5802 5802 5803 5804 5805 5806 5808 5810 5812 5814 5815 5817 5819 5820 5822 5823 5825 5826 5827 5829 5830 5831 5832 5832 5833 5834 5835 5835 5836 5836 5836 5837 5837 5837 5837 5837 5837 5836 5836 5836 5835
5791 5792 5793 5794 5795 5796 5797 5798 5800 5802 5805 5807 5808 5810 5812 5813 5815 5817 5818 5820 5821 5823 5824 5825 5826 5827 5828 5829 5829 5830 5831 5831 5832 5832 5832 5832 5832 5832 5832 5832 5832 5831 5831
5782 5783 5784 5785 5786 5787 5788 5790 5792 5794 5797 5799 5801 5803 5804 5806 5808 5810 5811 5813 5815 5816 5817 5818 5820 5821 5822 5823 5823 5824 5825 5825 5826 5827 5827 5827 5827 5827 5827 5827 5826 5826 5826
5772 5773 5774 5775 5776 5777 5779 5781 5784 5786 5788 5791 5792 5794 5796 5798 5800 5802 5804 5806 5807 5809 5811 5812 5813 5814 5815 5816 5817 5818 5818 5819 5820 5820 5821 5821 5821 5821 5821 5821 5821 5820 5820
5761 5762 5763 5764 5765 5767 5769 5772 5775 5777 5779 5782 5784 5786 5788 5790 5792 5794 5796 5798 5800 5801 5803 5804 5805 5807 5808 5809 5809 5810 5811 5812 5813 5814 5814 5814 5814 5814 5814 5814 5814 5814 5814
5750 5751 5752 5753 5754 5756 5759 5762 5765 5768 5770 5772 5774 5776 5778 5781 5783 5785 5787 5789 5791 5793 5795 5796 5798 5799 5800 5801 5801 5802 5803 5804 5805 5806 5806 5807 5807 5807 5807 5807 5807 5807 5807
5740 5741 5742 5743 5744 5746 5749 5752 5755 5758 5760 5762 5764 5766 5768 5771 5773 5776 5778 5780 5782 5783 5785 5788 5789 5790 5791 5792 5792 5793 5794 5795 5796 5797 5798 5798 5799 5799 5799 5799 5800 5800 5800
5729 5730 5731 5733 5735 5737 5739 5742 5744 5746 5749 5752 5753 5755 5758 5760 5763 5765 5768 5769 5771 5773 5775 5777 5779 5780 5782 5782 5783 5783 5784 5785 5786 5788 5789 5789 5790 5791 5791 5791 5792 5792 5792
5718 5719 5721 5722 5725 5727 5730 5732 5734 5736 5738 5741 5743 5745 5747 5750 5752 5754 5757 5759 5761 5762 5765 5767 5769 5769 5770 5772 5772 5773 5774 5775 5776 5777 5779 5780 5781 5782 5782 5783 5783 5784 5784
5707 5708 5710 5712 5714 5717 5720 5722 5724 5725 5728 5730 5732 5734 5736 5739 5741 5744 5746 5748 5750 5751 5753 5755 5757 5758 5760 5761 5761 5762 5763 5764 5766 5767 5769 5770 5772 5772 5773 5774 5774 5775 5775
5696 5698 5699 5702 5704 5706 5709 5711 5714 5715 5717 5719 5721 5723 5725 5727 5730 5732 5734 5736 5738 5740 5742 5743 5745 5747 5748 5749 5750 5751 5752 5753 5755 5757 5759 5760 5762 5763 5764 5764 5765 5766 5767
5686 5687 5689 5691 5693 5695 5698 5700 5703 5704 5706 5708 5710 5712 5714 5716 5718 5720 5722 5724 5726 5728 5730 5731 5733 5736 5737 5737 5739 5740 5741 5742 5744 5746 5748 5750 5751 5753 5754 5755 5756 5757 5757
5676 5677 5679 5681 5683 5684 5687 5689 5691 5693 5694 5696 5698 5701 5703 5704 5706 5708 5710 5712 5714 5716 5718 5720 5722 5724 5725 5726 5727 5728 5730 5731 5733 5736 5738 5740 5741 5743 5744 5745 5746 5747 5748
5666 5667 5669 5671 5672 5674 5676 5678 5679 5680 5682 5685 5687 5689 5691 5692 5694 5696 5698 5700 5702 5705 5707 5708 5710 5713 5714 5715 5716 5716 5718 5722 5723 5725 5727 5729 5731 5732 5734 5735 5735 5737 5738
5656 5657 5658 5660 5662 5663 5664 5666 5667 5669 5671 5673 5676 5678 5679 5680 5682 5684 5686 5688 5690 5693 5695 5698 5699 5701 5703 5704 5705 5706 5707 5710 5713 5714 5716 5718 5720 5721 5723 5724 5725 5726 5727
5647 5647 5648 5649 5651 5652 5653 5655 5657 5658 5661 5663 5664 5666 5668 5669 5671 5672 5674 5676 5679 5682 5684 5686 5688 5690 5691 5693 5694 5695 5697 5699 5701 5704 5706 5708 5709 5710 5712 5713 5714 5715 5716
5637 5637 5637 5637 5639 5640 5641 5643 5645 5647 5649 5651 5653 5655 5657 5659 5660 5661 5663 5665 5667 5670 5673 5674 5676 5679 5680 5682 5683 5685 5686 5688 5690 5693 5695 5697 5698 5700 5700 5702 5703 5704 5705
5627 5626 5626 5626 5627 5628 5629 5631 5633 5635 5637 5640 5642 5644 5646 5648 5649 5651 5652 5654 5656 5659 5661 5663 5664 5667 5669 5670 5672 5674 5675 5677 5679 5681 5684 5686 5688 5689 5690 5691 5692 5693 5695